FW3688 Weather Reports


time (UTC)temp
C
wind
direction
speed
KPH
gust
KPH
rain 1hr
cm
rain 24hr
cm
rain mn
cm
humidity
%
barometer
mb
20260506150752 15 23 4.8 19.3 0.00 0.00 0.00 55 1008.8
20260506150252 14 48 4.8 19.3 0.00 0.00 0.00 53 1008.8
20260506144752 14 37 4.8 14.5 0.00 0.00 0.00 53 1008.8
20260506144252 14 18 4.8 20.9 0.00 0.00 0.00 52 1008.8
20260506143253 15 45 4.8 14.5 0.00 0.00 0.00 58 1008.8
20260506141752 15 36 4.8 12.9 0.00 0.00 0.00 56 1008.9
20260506141252 15 11 4.8 19.3 0.00 0.00 0.00 53 1008.9
20260506140752 15 8 3.2 11.3 0.00 0.00 0.00 56 1008.8
20260506140253 15 31 4.8 12.9 0.00 0.00 0.00 54 1008.8
20260506134752 15 55 4.8 14.5 0.00 0.00 0.00 56 1008.8
20260506134253 15 22 8.0 14.5 0.00 0.00 0.00 51 1008.8
20260506133752 15 79 4.8 12.9 0.00 0.00 0.00 55 1008.8
20260506133252 15 50 8.0 14.5 0.00 0.00 0.00 53 1008.8
20260506131753 15 14 4.8 16.1 0.00 0.00 0.00 54 1008.6
20260506130752 15 18 8.0 19.3 0.00 0.00 0.00 52 1008.6
20260506124752 15 0 4.8 16.1 0.00 0.00 0.00 53 1008.5
20260506123753 16 17 3.2 14.5 0.00 0.00 0.00 56 1008.4
20260506123254 15 36 8.0 19.3 0.00 0.00 0.00 54 1008.4
20260506121252 16 45 6.4 20.9 0.00 0.00 0.00 51 1008.3
20260506120753 16 40 8.0 22.5 0.00 0.00 0.00 56 1008.3
20260506120252 16 17 8.0 20.9 0.00 0.00 0.00 54 1008.3
20260506114253 16 34 9.7 22.5 0.00 0.00 0.00 53 1008.5
20260506111753 15 38 8.0 22.5 0.00 0.00 0.00 53 1008.6
20260506111253 15 30 4.8 14.5 0.00 0.00 0.00 54 1008.6
20260506110753 15 46 8.0 20.9 0.00 0.00 0.00 55 1008.6
20260506110253 15 51 9.7 24.1 0.00 0.00 0.00 52 1008.7
20260506104753 16 43 9.7 20.9 0.00 0.00 0.00 52 1008.7
20260506104253 16 30 4.8 22.5 0.00 0.00 0.00 56 1008.8
20260506103753 15 21 12.9 24.1 0.00 0.00 0.00 52 1008.8
20260506101254 15 46 8.0 25.7 0.00 0.00 0.00 54 1008.9
20260506100753 14 43 9.7 24.1 0.00 0.00 0.00 53 1009.0
20260506100253 14 16 8.0 22.5 0.00 0.00 0.00 56 1009.0
20260506094753 14 32 6.4 20.9 0.00 0.00 0.00 56 1009.0
20260506094253 13 21 8.0 20.9 0.00 0.00 0.00 55 1009.0
20260506093253 13 41 8.0 25.7 0.00 0.00 0.00 55 1009.0
20260506091754 13 18 8.0 25.7 0.00 0.00 0.00 58 1009.1
20260506091253 13 32 11.3 25.7 0.00 0.00 0.00 56 1009.0
20260506090253 13 14 9.7 24.1 0.00 0.00 0.00 59 1009.0
20260506084753 13 11 11.3 19.3 0.00 0.00 0.00 56 1009.0
20260506084253 13 38 8.0 24.1 0.00 0.00 0.00 57 1009.0
20260506083753 13 35 9.7 22.5 0.00 0.00 0.00 56 1009.0
20260506083253 13 56 6.4 19.3 0.00 0.00 0.00 58 1009.0
20260506081754 13 27 8.0 16.1 0.00 0.00 0.00 56 1008.9
20260506081254 13 27 8.0 22.5 0.00 0.00 0.00 57 1008.9
20260506080753 13 37 9.7 19.3 0.00 0.00 0.00 56 1008.9
20260506080254 12 34 8.0 24.1 0.00 0.00 0.00 55 1008.9
20260506073253 12 39 8.0 19.3 0.00 0.00 0.00 58 1009.0
20260506071753 12 27 6.4 16.1 0.00 0.00 0.00 60 1008.9
20260506071254 11 40 6.4 20.9 0.00 0.00 0.00 62 1008.9
20260506070754 11 24 6.4 14.5 0.00 0.00 0.00 61 1008.9
20260506070254 11 57 4.8 22.5 0.00 0.00 0.00 62 1009.0
20260506061754 10 29 9.7 22.5 0.00 0.00 0.00 69 1008.8
20260506061254 10 39 8.0 16.1 0.00 0.00 0.00 74 1008.8
20260506060754 10 11 9.7 22.5 0.00 0.00 0.00 76 1008.8
20260506060254 9 2 4.8 24.1 0.00 0.00 0.00 78 1008.8
20260506050754 7 30 8.0 16.1 0.00 0.00 0.00 87 1008.8
20260506050254 7 27 6.4 20.9 0.00 0.00 0.00 87 1008.8
20260506044754 6 32 4.8 19.3 0.00 0.00 0.00 88 1008.9
20260506044254 6 44 3.2 11.3 0.00 0.00 0.00 88 1008.9
20260506043754 6 44 8.0 12.9 0.00 0.00 0.00 88 1008.8
20260506043254 6 30 6.4 14.5 0.00 0.00 0.00 88 1008.9
20260506041754 6 33 3.2 8.0 0.00 0.00 0.00 88 1008.9
20260506041254 6 30 1.6 8.0 0.00 0.00 0.00 88 1008.9
20260506040754 6 33 1.6 9.7 0.00 0.00 0.00 88 1008.9
20260506040254 6 18 1.6 12.9 0.00 0.00 0.00 88 1008.9
20260506034754 6 14 3.2 9.7 0.00 0.00 0.00 88 1008.9
20260506034254 6 27 1.6 8.0 0.00 0.00 0.00 89 1009.0
20260506033754 6 22 3.2 9.7 0.00 0.00 0.00 89 1008.9
20260506033255 6 17 3.2 11.3 0.00 0.00 0.00 89 1009.0
20260506031254 6 32 1.6 9.7 0.00 0.00 0.00 89 1009.0
20260506030754 6 35 3.2 9.7 0.00 0.00 0.00 89 1009.0
20260506030254 6 46 3.2 9.7 0.00 0.00 0.00 89 1009.0
20260506024754 6 19 3.2 9.7 0.00 0.00 0.00 89 1009.1
20260506024254 6 14 3.2 9.7 0.00 0.00 0.00 89 1009.1
20260506021755 6 26 0.0 1.6 0.00 0.00 0.00 90 1009.2
20260506021255 6 25 3.2 8.0 0.00 0.00 0.00 90 1009.3
20260506020754 6 24 3.2 8.0 0.00 0.00 0.00 90 1009.3
20260506020254 6 14 1.6 8.0 0.00 0.00 0.00 90 1009.3
20260506014255 6 28 1.6 4.8 0.00 0.00 0.00 90 1009.3
20260506013755 6 26 1.6 8.0 0.00 0.00 0.00 90 1009.3
20260506013255 6 25 3.2 8.0 0.00 0.00 0.00 91 1009.3
20260506011755 6 24 1.6 3.2 0.00 0.00 0.00 91 1009.4
20260506011255 6 24 1.6 3.2 0.00 0.00 0.00 91 1009.4
20260506010755 6 27 1.6 3.2 0.00 0.00 0.00 90 1009.4
20260506010255 6 28 0.0 9.7 0.00 0.00 0.00 90 1009.4
20260506004255 6 29 1.6 3.2 0.00 0.00 0.00 90 1009.5
20260506001755 6 34 1.6 4.8 0.00 0.00 0.00 91 1009.4
20260506001255 6 32 0.0 4.8 0.00 0.00 0.00 91 1009.3
20260506000755 6 31 1.6 4.8 0.00 0.00 0.00 91 1009.3
20260506000255 6 30 1.6 9.7 0.00 0.00 0.00 91 1009.4
20260505234755 6 24 1.6 9.7 0.00 0.00 0.00 91 1009.5
20260505234255 6 23 1.6 4.8 0.00 0.00 0.00 90 1009.5
20260505233755 6 31 1.6 3.2 0.00 0.00 0.00 91 1009.5
20260505233255 6 32 1.6 8.0 0.00 0.00 0.00 90 1009.5
20260505231755 7 30 1.6 9.7 0.00 0.00 0.00 90 1009.5
20260505231256 7 32 1.6 8.0 0.00 0.00 0.00 90 1009.5
20260505230255 7 30 1.6 9.7 0.00 0.00 0.00 91 1009.4
20260505224755 7 35 0.0 4.8 0.00 0.00 0.00 90 1009.5
20260505224255 7 33 1.6 3.2 0.00 0.00 0.00 90 1009.5
20260505223755 7 33 0.0 3.2 0.00 0.00 0.00 90 1009.5
20260505223255 7 33 0.0 4.8 0.00 0.00 0.00 89 1009.5
20260505221255 7 34 0.0 1.6 0.00 0.00 0.00 89 1009.6
20260505220756 7 34 0.0 0.0 0.00 0.00 0.00 88 1009.6
20260505220256 7 34 0.0 8.0 0.00 0.00 0.00 88 1009.6
20260505214756 7 34 0.0 0.0 0.00 0.00 0.00 88 1009.7
20260505214256 7 34 0.0 4.8 0.00 0.00 0.00 88 1009.8
20260505213756 7 32 0.0 4.8 0.00 0.00 0.00 88 1009.8
20260505211756 7 36 1.6 8.0 0.00 0.00 0.00 86 1009.9
20260505211256 7 35 1.6 3.2 0.00 0.00 0.00 86 1009.9
20260505210756 7 38 1.6 8.0 0.00 0.00 0.00 85 1009.9
20260505210256 7 113 0.0 0.0 0.00 0.00 0.00 85 1009.9
20260505204755 8 114 0.0 0.0 0.00 0.00 0.00 83 1009.9
20260505204256 8 115 0.0 0.0 0.00 0.00 0.00 83 1010.0
20260505203755 8 115 0.0 0.0 0.00 0.00 0.00 83 1009.9
20260505203256 8 115 0.0 4.8 0.00 0.00 0.00 83 1010.0
20260505201755 8 115 3.2 11.3 0.00 0.00 0.00 83 1009.9
20260505201255 8 100 1.6 4.8 0.00 0.00 0.00 83 1009.9
20260505194756 8 106 1.6 8.0 0.00 0.00 0.00 82 1009.8
20260505194256 8 98 1.6 11.3 0.00 0.00 0.00 81 1009.8
20260505193756 8 96 3.2 11.3 0.00 0.00 0.00 81 1009.8
20260505191756 9 58 3.2 11.3 0.00 0.00 0.00 78 1009.6
20260505191256 9 88 0.0 8.0 0.00 0.00 0.00 77 1009.5
20260505190256 10 40 3.2 11.3 0.00 0.00 0.00 75 1009.4
20260505184756 10 89 3.2 12.9 0.00 0.00 0.00 73 1009.4
20260505184256 10 27 3.2 9.7 0.00 0.00 0.00 73 1009.4
20260505183756 10 32 4.8 14.5 0.00 0.00 0.00 73 1009.4
20260505183256 10 50 6.4 19.3 0.00 0.00 0.00 72 1009.3
20260505181756 11 42 3.2 11.3 0.00 0.00 0.00 72 1009.4
20260505181256 11 21 4.8 12.9 0.00 0.00 0.00 72 1009.4
20260505180756 11 32 3.2 11.3 0.00 0.00 0.00 72 1009.4
20260505174756 11 34 3.2 11.3 0.00 0.00 0.00 72 1009.4
20260505174256 11 34 4.8 11.3 0.00 0.00 0.00 71 1009.4
20260505173756 11 21 3.2 9.7 0.00 0.00 0.00 71 1009.4
20260505173256 11 22 4.8 11.3 0.00 0.00 0.00 70 1009.4
20260505171757 12 22 3.2 14.5 0.00 0.00 0.00 69 1009.5
20260505171256 12 43 3.2 9.7 0.00 0.00 0.00 68 1009.4
20260505170756 12 29 1.6 4.8 0.00 0.00 0.00 68 1009.4
20260505170257 12 32 1.6 11.3 0.00 0.00 0.00 66 1009.5
20260505164757 13 72 3.2 8.0 0.00 0.00 0.00 65 1009.4
20260505164256 14 48 1.6 8.0 0.00 0.00 0.00 61 1009.5
20260505163756 15 50 1.6 4.8 0.00 0.00 0.00 61 1009.5
20260505163256 15 43 1.6 12.9 0.00 0.00 0.00 59 1009.6
20260505161756 16 43 3.2 8.0 0.00 0.00 0.00 60 1009.6
20260505161256 16 48 3.2 12.9 0.00 0.00 0.00 57 1009.6
20260505160756 16 28 3.2 9.7 0.00 0.00 0.00 57 1009.6